カタログに戻る

STARLINK-34930

運用中通信VLEO
NORAD 65688·PAYLOAD·🇺🇸 United States

打ち上げ Sep 21, 2025 から Cape Canaveral Space Force Station

Loading…

次のパス (今後24時間)

TLE

最新Source: CelesTrak SupGP

元期: Sep 14, 2026, 23:14 UTC

1 65688C 25212N   26257.96854167 -.00038312  00000+0 -12317-2 0  2574
2 65688  53.1588 185.3676 0001198  76.5196 110.6590 15.31729913    18

AllMySatでSTARLINK-34930をリアルタイム追跡

Download on the App Store